Location: Azul
(36.7830°S, 59.8500°W)
Time: 18:41:15
(UTC-03:00)

ISS - Pass Details

Date: 07 August 2020
Orbit: 418 x 420 km, 51.6° (Epoch: 08 August)

Event Time Altitude Azimuth Distance (km) Brightness Sun altitude
Exits shadow 06:55:33 - 212° (SSW) 1,575 -1.2 -11.5°
Reaches altitude 10° 06:55:41 10° 211° (SSW) 1,528 -1.3 -11.5°
Maximum altitude 06:58:45 30° 147° (SSE) 802 -2.1 -10.9°
Drops below altitude 10° 07:01:48 10° 84° (E) 1,514 0.7 -10.3°
Sets 07:04:03 0° 72° (ENE) 2,373 2.4 -9.8°
